Wind_Speed
26 25 24 26 27 26 26 26 27 26 26 26 25 24 22 20 17 14 14 12 10 9 10 10 11 11 12
28 27 28 30 30 28 29 30 30 29 28 28 26 25 23 20 18 16 15 13 11 10 9 9 10 10 10
28 28 28 31 31 31 31 33 32 30 28 28 26 25 24 21 20 17 16 15 13 10 10 9 9 9 10
29 30 29 30 29 32 35 34 34 33 31 31 28 24 24 24 22 20 17 17 15 11 9 10 10 9 9
26 24 26 27 28 31 32 34 34 34 35 35 32 31 32 26 26 24 20 19 16 13 11 10 10 8 8
29 26 31 28 31 35 32 18 7 26 33 36 34 37 34 31 28 25 20 18 17 14 13 11 10 8 8
32 31 28 31 31 31 31 27 22 22 17 20 27 33 34 28 26 21 18 16 17 15 12 10 9 8 8
40 43 40 38 35 35 32 29 27 24 21 12 20 26 25 23 22 21 19 17 18 16 13 11 11 8 8
33 33 30 30 33 27 24 18 12 14 25 19 13 17 18 21 22 21 18 19 19 16 13 12 11 8 8
32 32 31 31 30 31 29 22 14 6 18 18 13 14 5 15 23 23 18 21 18 14 13 12 11 10 9
30 30 29 28 26 28 31 34 23 19 10 23 15 18 10 4 15 21 22 25 19 16 13 13 11 10 10
27 27 27 27 28 29 30 30 32 30 20 21 12 21 16 9 6 19 22 22 19 15 14 16 11 9 9
22 25 28 29 25 22 22 24 25 27 26 24 25 20 21 12 11 15 17 21 20 17 15 15 13 11 11
23 27 26 23 21 20 21 22 22 21 21 23 26 24 20 19 18 16 15 10 20 19 16 14 11 10 8
24 25 24 21 20 21 21 21 17 14 19 22 22 21 20 22 15 18 21 14 12 13 15 14 11 9 10
23 22 22 21 21 21 21 20 18 17 19 22 23 18 10 12 18 20 19 17 14 13 15 14 12 11 12
24 23 23 23 20 21 21 21 18 18 20 24 24 17 5 5 10 16 21 18 15 16 16 14 8 9 11
Wind_Direction
263 261 257 259 259 263 265 263 261 257 257 256 250 252 255 254 261 258 253 259 263 269 283 292 307 319 329
259 258 255 259 261 263 263 263 260 259 258 255 252 247 249 249 254 257 251 252 256 264 274 286 298 314 323
250 260 258 256 253 256 258 259 258 259 256 255 247 241 239 243 248 250 249 243 249 255 265 279 290 303 315
245 252 252 251 250 253 249 253 254 255 254 251 251 241 237 245 241 250 246 244 243 246 253 269 280 293 309
239 243 240 235 235 247 249 256 257 256 255 251 248 245 249 242 243 249 249 242 244 241 252 249 260 276 293
237 236 242 240 247 249 249 233 254 259 249 251 250 249 250 246 247 252 246 239 235 233 243 238 247 264 279
241 243 251 252 251 246 240 237 241 250 232 243 249 251 250 245 245 233 230 228 227 231 237 238 238 254 267
262 257 257 259 256 255 254 255 252 249 241 237 252 247 250 244 227 220 222 222 220 224 231 229 233 248 262
282 280 281 269 258 253 235 211 233 239 238 231 237 234 229 226 226 220 222 213 213 217 226 229 235 242 256
291 288 284 274 262 257 244 218 216 207 230 208 203 197 224 232 218 218 222 209 211 219 230 229 228 233 248
290 288 281 275 269 259 249 243 223 229 224 196 200 200 205 176 203 212 207 199 211 221 231 224 225 229 243
288 280 273 270 270 264 258 253 249 247 242 230 218 205 186 163 175 198 206 214 218 220 220 214 216 228 239
281 274 277 280 277 268 259 251 246 241 239 230 225 225 207 187 166 176 184 214 217 217 215 218 223 229 227
283 283 282 270 259 253 242 235 229 227 228 235 231 217 196 203 193 176 192 188 203 211 213 219 225 239 241
293 280 270 259 246 242 234 224 213 202 201 209 217 216 215 207 187 195 190 191 184 193 205 215 231 232 232
292 279 259 246 238 235 224 217 211 203 193 192 193 189 184 205 216 191 196 197 197 207 210 213 228 226 218
287 274 258 246 231 219 215 212 209 203 198 193 188 185 176 192 200 210 199 202 198 203 209 213 219 206 199
Height
846 846 846 844 843 843 843 842 840 840 840 840 840 840 840 839 838 838 838 837 838 837 839 838 836 835 832
838 838 838 837 836 836 836 835 834 834 834 834 834 834 834 835 835 833 833 834 834 834 834 834 834 832 829
830 829 830 829 828 828 827 825 825 827 828 826 826 826 826 827 829 828 827 828 828 828 829 830 829 828 827
824 822 822 822 821 819 816 816 817 818 819 819 819 821 820 819 822 822 822 823 823 823 824 826 826 826 824
814 814 813 812 808 806 808 808 808 810 810 809 810 811 812 817 816 816 817 819 818 820 820 820 820 821 820
803 802 800 800 800 800 800 802 804 800 801 800 803 802 800 804 809 811 811 812 815 815 815 816 815 817 816
794 792 792 793 793 793 791 792 791 791 796 794 793 793 794 792 801 803 806 806 810 811 811 811 812 812 812
784 782 782 783 783 783 782 784 786 785 788 787 784 785 787 791 791 795 798 800 803 806 806 807 807 808 809
775 774 774 774 777 776 775 777 779 776 780 781 778 781 782 782 785 791 792 795 797 799 801 802 803 804 805
768 767 768 766 767 767 769 768 771 770 768 775 773 776 779 777 777 783 788 791 794 796 797 799 799 800 801
761 760 760 759 759 759 761 760 761 760 760 763 766 768 771 774 774 775 780 784 787 790 792 794 795 796 797
754 752 752 752 752 752 752 753 754 754 756 758 758 761 763 768 771 773 776 778 781 784 786 789 791 793 794
749 747 745 745 744 745 747 747 748 749 751 752 753 756 759 759 762 766 772 773 775 779 782 785 786 787 789
743 741 740 739 738 738 740 742 743 744 746 748 749 751 753 756 758 761 765 768 770 775 778 780 782 783 784
738 736 734 734 733 733 733 737 738 739 741 743 747 749 750 753 756 757 761 765 768 772 775 777 779 780 782
732 730 730 728 728 729 730 732 733 735 737 739 743 747 749 751 753 755 759 762 765 768 772 773 774 775 776
729 725 724 722 723 723 725 726 727 728 731 736 739 742 746 748 750 752 756 759 761 764 767 770 772 773 773